Regional Weather Roundup
Issued by NWS

Home | Current Version | Previous Version | Graphics & Text | Print | Product List | Glossary Off
Versions: 1 2 3 4 5 6 7 8 9 10 11 12 13 14 15 16 17 18 19 20 21 22 23 24 25 26 27 28 29 30 31 32 33 34 35 36 37 38 39 40 41 42 43 44 45 46 47 48 49 50

741
ASUS43 KMKX 250410
RWRWI

WISCONSIN REGIONAL WEATHER ROUNDUP
NATIONAL WEATHER SERVICE MILWAUKEE/SULLIVAN WI
1000 PM CST SAT FEB 24 2018

NOTE: "FAIR" INDICATES FEW OR NO CLOUDS BELOW 12,000 FEET WITH NO
SIGNIFICANT WEATHER AND/OR OBSTRUCTIONS TO VISIBILITY.

WIZ001-002-006>008-014>016-023>028-250500-
NORTHWEST WISCONSIN

CITY           SKY/WX    TMP DP  RH WIND       PRES   REMARKS
SUPERIOR ARPT  LGT SNOW  26  25  96 E10       29.55F VSB 1   WCI  16
ASHLAND        SNOW      27  25  92 NE8       29.55F VSB 1/2 WCI  19
HAYWARD        SNOW      29  28  96 E5        29.49F VSB 1/2 WCI  24
SIREN          LGT SNOW  29  29  97 NE3       29.48F
CUMBERLAND     LGT SNOW  28  28 100 E3        29.47F VSB 1
RICE LAKE      LGT SNOW  30  30  99 E3        29.49F VSB 3/4
CHETEK         SNOW      30  30  99 CALM      29.48F VSB 1/2
LADYSMITH      LGT SNOW  31  29  95 SE8       29.51F VSB 3/4 WCI  23
EAU CLAIRE     SNOW      31  30  96 CALM      29.48F VSB 1/2
MENOMONIE      LGT SNOW  31  31  99 E3        29.49F
NEW RICHMOND   LGT SNOW  30  28  94 E3        29.47F
OSCEOLA        LGT SNOW  30  30 100 E5        29.49F WCI  25
$$

WIZ003>005-009-010-017-018-250500-
NORTH CENTRAL WISCONSIN

CITY           SKY/WX    TMP DP  RH WIND       PRES   REMARKS
MANITOWISH WTR LGT SNOW  27  27 100 SE10G16   29.48F WCI  17
ARBOR VITAE    MIX PCPN  29  27  91 SE17G30   29.47F WCI  17
WOODRUFF       MIX PCPN  29  27  91 SE17G30   29.47F WCI  17
RHINELANDER    MIX PCPN  29  26  89 SE22G31   29.47F WCI  15
EAGLE RIVER    LGT SNOW  28  25  89 SE12G23   29.48F WCI  17
LAND O LAKES   SNOW      28  26  92 SE17G24   29.49F VSB 1/2 WCI  15
PHILLIPS       LGT SNOW  28  28  99 SE7       29.47F WCI  21
TOMAHAWK       LGT SNOW  29  26  90 SE5       29.48F WCI  24
MEDFORD        LGT SNOW  29  27  94 SE10      29.47F VSB 1   WCI  19
MERRILL        LGT SNOW  30  29  94 SE13G22   29.49F VSB 3/4 WCI  20
$$

WIZ029-030-035-036-043>047-250500-
CENTRAL WISCONSIN

CITY           SKY/WX    TMP DP  RH WIND       PRES   REMARKS
WAUSAU         MIX PCPN  32  30  92 SE15G25   29.46F FOG     WCI  22
MOSINEE        FRZ RAIN  32  30  93 SE15G22   29.49F WCI  22
MARSHFIELD     LGT SNOW  32  31  96 SE9       29.46F VSB 3/4 WCI  24
STEVENS POINT  MIX PCPN  31  31 100 SE9       29.50F WCI  23
WAUPACA        LGT RAIN  35  32  90 E12       29.52F WCI  27
WAUTOMA        LGT SNOW  33  32  96 E6        29.50F FOG     WCI  28
WISC RAPIDS    LGT SNOW  33  30  88 SE10      29.48F FOG     WCI  25
CAMP DOUGLAS   LGT SNOW  33  33  99 CALM      29.49F FOG
$$

WIZ011>013-019>022-031-037>040-048>050-250500-
NORTHEAST WISCONSIN

CITY           SKY/WX    TMP DP  RH WIND       PRES   REMARKS
ANTIGO         MIX PCPN  29  28  97 SE22G31   29.50F WCI  15
SHAWANO        LGT RAIN  34  32  91 E10G17    29.56F WCI  26
OCONTO         CLOUDY    32  31  96 E15G22    29.59F WCI  22
STURGEON BAY   MIX PCPN  32  30  92 SE15G23   29.62F WCI  22
GREEN BAY      HVY RAIN  34  30  85 E14G24    29.56F FOG     WCI  25
MANITOWOC      LGT RAIN  33  33 100 SE16      29.59F FOG     WCI  23
APPLETON       LGT RAIN  34  32  93 E17G26    29.52F WCI  23
CLINTONVILLE   MIX PCPN  33  32  94 E12       29.53F WCI  24
OSHKOSH        CLOUDY    35  33  92 SE21G26   29.50F WCI  24
$$

WIZ032>034-041-042-053>061-250500-
SOUTHWEST WISCONSIN

CITY           SKY/WX    TMP DP  RH WIND       PRES   REMARKS
LA CROSSE      LGT SNOW  33  32  96 SW3       29.49F FOG
SPARTA         LGT SNOW  32  32  99 CALM      29.49F
VIROQUA        CLOUDY    33  33 100 S5        29.48F VSB 1   WCI  28
BOSCOBEL       LGT RAIN  35  34  96 SW5       29.52F FOG     WCI  31
PRAIRIE DU CHI LGT RAIN  34  33  95 CALM      29.52F
PLATTEVILLE    CLOUDY    36  36 100 SW8       29.51F VSB 3/4 WCI  30
$$

WIZ056-057-062-063-064-067-068-250500-
SOUTH CENTRAL WISCONSIN

CITY           SKY/WX    TMP DP  RH WIND       PRES   REMARKS
REEDSBURG      RAIN      35  35 100 SW6       29.49S WCI  30
BARABOO/DELLS  RAIN      36  35  96 CALM      29.47F
LONE ROCK      LGT RAIN  35  35 100 W5        29.51S VSB 1   WCI  31
MINERAL POINT  LGT RAIN  37  37 100 S9        29.50R WCI  31
MADISON        RAIN      37  36  96 SE14      29.47F FOG     WCI  28
MIDDLETON      CLOUDY    38  38 100 SE9       29.46F WCI  32
WATERTOWN      LGT RAIN  37  37 100 SE18G25   29.47F WCI  27
MONROE         RAIN      37  36  93 S3        29.46F VSB 1/2
JANESVILLE     LGT RAIN  37  37 100 E10       29.46F WCI  30
$$

WIZ051-052-058>065-066-070>072-250500-
SOUTHEAST WISCONSIN

CITY           SKY/WX    TMP DP  RH WIND       PRES   REMARKS
MILWAUKEE      RAIN      38  37  97 SE16      29.53F FOG     WCI  29
WAUKESHA       LGT RAIN  34  34 100 E13       29.53F WCI  25
MILWAUKEE/TIMM LGT RAIN  36  32  87 E12       29.55F WCI  27
RACINE         CLOUDY    37  37 100 SE13G21   29.54F FOG     WCI  29
BURLINGTON     MIX PCPN  38  37  97 E13       29.49F WCI  30
KENOSHA        LGT RAIN  39  36  89 SE18G28   29.52F FOG     WCI  30
FOND DU LAC    LGT RAIN  36  32  85 SE23G36   29.48F WCI  24
SHEBOYGAN      LGT RAIN  35  35 100 SE18G29   29.56F FOG     WCI  24
WEST BEND      LGT RAIN  34  34 100 E13       29.54F WCI  25
JUNEAU         DRIZZLE   36  35  97 E18G30    29.49F WCI  25
$$

LSZ147-162-250500-
LAKE SUPERIOR

STATION/POSITION TIME  TEMP    WIND        PRES    WAVE
                       AIR SEA DIR/SP/G            HT/PER
                 (UTC) (F)     (DEG/KT/KT) (MB)    (FT/S)
DEVILS ISLAND    0400   29      70/ 26/ 31 1001.9F
SAXON HARBOR     0330   29      30/  4/  6 1000.7F
$$

LMZ867-665-643>646-250500-
LAKE MICHIGAN

STATION/POSITION TIME  TEMP    WIND        PRES    WAVE
                       AIR SEA DIR/SP/G            HT/PER
                 (UTC) (F)     (DEG/KT/KT) (MB)    (FT/S)
NORTHPORT PIER   0340   33                 1004.4F
KEWAUNEE LAKESHO 0342   33     120/ 14/ 17 1003.3F
SHEBOYGAN LAKESH 0400   35     120/ 18/ 19 1001.8F
PORT WASHINGTON  0341   36     100/ 10/ 12 1003.4F
KENOSHA   LAKESH 0400   36     140/ 11/ 12 1000.3
$$

TC  - TEMPERATURE IN CELSIUS
VSB - VISIBILITY IN STATUTE MILES
WCI - WIND CHILL INDEX
HX  - HEAT INDEX





USA.gov is the U.S. government's official web portal to all federal, state and local government web resources and services.